Weather History for Culiacan, Mexico

Change the Weather History Date:

Monday, November 5, 2012

  Actual Average Record
Temperature  
Mean Temperature 80 °F -  
Max Temperature 94 °F 87 °F 98 °F (2007)
Min Temperature 65 °F 62 °F 62 °F (2004)
Cooling Degree Days 14    
Growing Degree Days 30 (Base 50)    
Moisture  
Dew Point 67 °F    
Average Humidity 62    
Maximum Humidity 94    
Minimum Humidity 35    
Precipitation  
Precipitation 0.00 in - - ()
Sea Level Pressure  
Sea Level Pressure 29.93 in    
Wind  
Wind Speed 2 mph ()    
Max Wind Speed 12 mph    
Max Gust Speed -    
Visibility 9.4 miles    
Events      
Averages and records for this station are not official NWS values.
T = Trace of Precipitation, MM = Missing Value Source: Averaged Metar Reports

Daily Weather History Graph

Daily Weather History Graph

Search for Another Location

Airport:

Trip Planner

Search our weather history database for the weather conditions in past years. The results will help you decide how hot, cold, wet, or windy it might be!

Date:

Astronomy

Nov. 05, 2012 Rise Set
Actual Time 6:19 AM MST 5:26 PM MST
Civil Twilight 5:56 AM MST 5:50 PM MST
Nautical Twilight 5:28 AM MST 6:17 PM MST
Astronomical Twilight 5:02 AM MST 6:44 PM MST
Moon 11:05 PM MST (11/5) 11:40 AM MST (11/5)
Length of Visible Light 11h 54m
Length of Day
11h 07m
Waning Gibbous, 62% of the Moon is Illuminated
Nov 5
Waning Gibbous
Nov 6
Last Quarter
Nov 13
New
Nov 20
First Quarter
Nov 28
Full

Hourly Weather History & Observations

Time (MST) Temp. Heat Index Dew Point Humidity Pressure Visibility Wind Dir Wind Speed Gust Speed Precip Events Conditions
1:40 AM 69 °F - 66 °F 86% 29.98 in 6 mi SW 2.2 mph - -  
4:40 AM 67 °F - 64 °F 86% 29.97 in 6 mi SW 2.2 mph - -  
5:51 AM 69.8 °F - 68.0 °F 94% 29.93 in 10.0 mi Calm Calm - N/A   Scattered Clouds
6:40 AM 69.8 °F - 64.4 °F 83% 29.94 in 10.0 mi Calm Calm - N/A   Scattered Clouds
7:40 AM 69 °F - 66 °F 86% 30.00 in 10 mi SW 2.2 mph - -   Haze
7:43 AM 73.4 °F - 62.6 °F 69% 29.95 in 10.0 mi Calm Calm - N/A   Scattered Clouds
8:45 AM 78.8 °F - 62.6 °F 57% 29.97 in 10.0 mi Calm Calm - N/A   Scattered Clouds
9:40 AM 82.4 °F 84.6 °F 66.2 °F 58% 29.97 in 10.0 mi Calm Calm - N/A   Scattered Clouds
10:44 AM 87.8 °F 92.6 °F 69.8 °F 55% 29.96 in 10.0 mi Calm Calm - N/A   Scattered Clouds
10:45 AM 87 °F - 70 °F 47% 30.01 in 10 mi SW 2.2 mph - -  
11:41 AM 89.6 °F 96.2 °F 71.6 °F 55% 29.92 in 10.0 mi Calm Calm - N/A   Partly Cloudy
12:40 PM 93.2 °F 102.4 °F 73.4 °F 52% 29.91 in 10.0 mi Calm Calm - N/A   Clear
1:40 PM 92 °F - 67 °F 35% 29.90 in 10 mi SW 2.2 mph - -  
1:47 PM 93.2 °F 97.7 °F 68.0 °F 44% 29.90 in 10.0 mi SSW 5.8 mph - N/A   Clear
2:43 PM 93.2 °F 97.7 °F 68.0 °F 44% 29.83 in 10.0 mi SW 5.8 mph - N/A   Clear
3:40 PM 91.4 °F 98.4 °F 71.6 °F 52% 29.83 in 10.0 mi SW 11.5 mph - N/A   Clear
4:40 PM 87 °F - 70 °F 48% 29.91 in 10 mi SW 2.2 mph - -  
4:45 PM 86.0 °F 90.4 °F 69.8 °F 58% 29.84 in 10.0 mi SW 11.5 mph - N/A   Scattered Clouds
5:44 PM 82.4 °F 84.6 °F 66.2 °F 58% 29.85 in 10.0 mi SSW 5.8 mph - N/A   Partly Cloudy
6:41 PM 80.6 °F 82.3 °F 64.4 °F 58% 29.88 in 10.0 mi Calm Calm - N/A   Partly Cloudy
7:44 PM 78.8 °F - 66.2 °F 65% 29.94 in 10.0 mi Calm Calm - N/A   Clear
7:45 PM 78 °F - 67 °F 60% 29.98 in 6 mi Calm Calm - -  
8:41 PM 77.0 °F - 64.4 °F 65% 29.91 in 10.0 mi Calm Calm - N/A   Clear
9:43 PM 77.0 °F - 64.4 °F 65% 29.91 in 10.0 mi Calm Calm - N/A   Clear
10:45 PM 73 °F - 66 °F 73% 29.99 in 6 mi Calm Calm - -